SCP
0 0 0 0 0 0 0 0 0 0 0 0 0 0 0 0 0 0 0 0 0 0 0 0 0 0 0 0 0 0 0 0 0 0 0 0 0 0 0 0 0 0 0
0 0 0 0 0 0 0 0 0 0 0 0 0 0 0 0 0 0 0 0 0 0 0 0 0 0 0 0 0 0 0 0 0 0 0 0 0 0 0 0 0 0 0
0 0 0 0 0 0 0 0 0 0 0 0 0 0 0 0 0 0 0 0 0 0 0 0 0 0 0 0 0 0 0 0 0 0 0 0 0 0 0 0 0 0 0
0 0 0 0 0 0 0 0 0 0 0 0 0 0 0 0 0 0 0 0 0 0 0 0 0 0 0 0 0 0 0 0 0 0 0 0 0 0 0 0 0 0 0
0 0 0 0 0 0 0 0 0 0 0 0 0 0 0 0 0 0 0 0 0 0 0 0 0 0 0 0 0 0 0 0 0 0 0 0 0 0 0 0 0 0 0
0 0 0 0 0 0 0 0 0 0 0 0 0 0 0 0 0 0 0 0 0 0 0 0 0 0 0 0 0 0 0 0 0 0 0 0 0 0 0 0 0 0 0
0 0 0 0 0 0 0 0 0 0 0 0 0 0 0 0 0 0 0 0 0 0 0 0 0 0 0 0 0 0 0 0 0 0 0 0 0 0 0 0 0 0 0
0 0 0 0 0 0 0 0 0 0 0 0 0 0 0 0 0 0 0 0 0 0 0 0 0 0 0 0 0 0 0 0 0 0 0 0 0 0 0 0 0 0 0
0 0 0 0 0 0 0 0 0 0 0 0 0 0 0 0 0 0 0 0 0 0 0 0 0 0 0 0 0 0 0 0 0 0 0 0 0 0 0 0 0 0 0
0 0 0 0 0 0 0 0 0 0 0 0 0 0 0 0 0 0 0 0 0 0 0 0 0 0 0 0 0 0 0 0 0 0 0 0 0 0 0 0 0 0 0
0 0 0 0 0 0 0 0 0 0 0 0 0 0 0 0 0 0 -0 0 0 0 0 0 0 0 0 0 0 0 0 0 0 0 0 0 0 0 0 0 0 0 0
0 0 0 0 0 0 0 0 0 0 0 0 0 0 0 0 0 0 0 0 0 0 0 0 0 0 0 0 0 0 0 0 0 0 0 0 0 0 0 0 0 0 0
0 0 0 0 0 0 0 0 0 0 0 0 0 0 0 0 0 0 0 0 0 0 0 0 0 0 0 0 0 0 0 0 0 0 0 0 0 0 0 0 0 0 0
0 0 0 0 0 0 0 0 0 0 0 0 0 0 0 0 0 0 0 0 0 0 0 0 0 0 0 0 0 0 0 0 0 0 0 0 0 0 0 0 0 0 0
0 0 0 0 0 0 0 0 0 0 0 0 0 0 0 0 0 0 0 0 0 0 0 0 0 0 0 0 0 0 0 0 0 0 0 0 0 0 0 0 0 0 0
0 0 0 0 0 0 0 0 0 0 0 0 0 0 0 0 0 0 0 0 0 0 0 0 0 0 0 0 0 0 0 0 0 0 0 0 0 0 0 0 0 0 0
0 0 0 0 0 0 0 0 0 0 -0 0 0 0 0 0 0 -0 -0 -0 0 0 0 0 0 0 0 0 0 0 0 0 0 0 0 0 0 0 0 0 0 0 0
0 0 0 0 0 0 0 0 0 0 0 0 0 0 0 0 -0 -0 -0 -0 0 0 0 0 0 0 0 0 0 0 0 0 0 0 0 0 0 0 0 0 0 0 0
0 0 0 0 0 0 0 0 0 0 0 0 0 0 0 0 -0 -0 -0 0 0 0 0 0 0 0 0 0 0 0 0 0 0 0 0 0 0 0 0 0 0 0 0
0 0 0 0 0 0 0 0 0 0 0 0 0 0 0 0 0 0 0 0 0 0 0 0 0 0 0 0 0 0 0 0 0 0 0 0 0 0 0 0 0 0 0
0 0 0 0 0 0 0 0 0 0 0 0 0 0 0 0 0 0 0 0 0 0 0 0 0 0 0 0 0 0 0 0 0 0 0 0 0 0 0 0 0 0 0
0 0 0 0 0 0 0 0 0 0 0 0 0 0 0 0 0 0 0 0 0 0 0 0 0 0 0 0 0 0 0 0 0 0 0 0 0 0 0 0 0 0 0
0 0 0 0 0 0 0 0 0 0 0 0 0 0 0 0 0 0 0 0 0 0 0 0 0 0 0 0 0 0 0 0 0 0 0 0 0 0 0 0 0 0 0
-0 -0 -0 -0 -0 -0 -0 0 0 0 0 0 0 0 0 0 0 0 0 0 0 0 0 0 0 0 0 0 0 0 0 0 0 0 0 0 0 0 0 0 0 0 0
-0 -0 -0 -0 -0 -0 -0 -0 -0 -0 0 -0 -0 -0 -0 -0 -0 0 0 0 0 0 0 0 0 0 0 0 0 0 0 0 0 0 0 0 0 0 0 0 0 0 0
-0 -0 -0 -0 -0 -0 -0 -0 -0 -0 -0 -0 -0 -0 -0 -0 0 0 0 0 0 0 0 0 0 0 0 0 0 0 0 0 0 0 0 0 0 0 0 0 0 0 0
Wind_Speed_500mb
32 31 30 30 30 33 42 53 74 92 80 82 86 85 87 93 95 95 96 98 102 102 104 108 108 105 106 104 102 95 88 83 84 80 78 70 66 61 56 62 63 64 63
35 35 33 31 29 31 35 39 45 58 77 87 80 85 92 96 94 93 94 100 94 96 101 103 105 102 104 105 106 107 101 96 92 89 83 78 73 66 67 65 63 63 64
37 35 34 32 32 32 31 34 48 55 59 67 84 79 91 93 95 95 96 96 102 89 88 102 103 100 100 102 106 106 103 102 101 97 91 86 81 73 73 72 71 72 68
39 32 31 32 33 34 33 32 35 46 64 60 65 80 82 89 100 102 98 96 102 92 88 92 93 97 100 100 100 101 102 101 103 102 99 92 89 82 79 80 80 76 74
42 34 30 29 30 33 34 33 32 35 50 70 67 68 72 87 93 96 97 100 89 91 87 93 92 91 88 91 93 96 98 100 102 103 103 97 96 95 92 88 85 82 79
44 36 30 31 31 31 34 34 31 30 33 50 70 64 74 80 93 95 97 91 97 89 90 94 92 89 86 87 88 89 88 91 101 103 105 106 102 94 99 99 94 89 90
50 39 32 31 32 33 35 37 33 29 29 34 44 71 64 68 76 92 95 94 92 90 90 92 92 93 88 86 85 83 84 83 82 85 92 104 104 98 97 105 105 99 100
56 50 42 38 37 37 40 40 37 35 32 32 32 37 51 57 59 74 78 95 96 93 90 88 88 88 88 86 84 84 86 86 86 83 83 81 83 79 80 79 81 93 97
63 55 47 40 41 43 45 45 43 42 41 39 36 35 35 50 53 53 62 82 93 103 85 81 83 84 87 79 80 81 82 88 85 88 87 88 82 76 75 73 75 72 77
75 63 48 45 48 48 49 50 49 49 50 49 46 40 38 39 40 55 43 66 80 94 92 96 87 85 78 78 80 80 84 86 83 83 88 90 87 86 83 84 81 81 80
74 70 60 55 59 59 54 54 54 54 55 56 56 50 45 41 39 39 50 60 57 71 78 91 84 90 93 83 83 83 81 75 78 80 80 83 83 91 86 87 86 88 91
63 66 71 72 70 67 62 61 59 59 60 60 61 63 56 48 42 39 40 47 58 56 65 72 72 69 79 81 78 80 77 74 79 80 82 79 84 89 85 81 80 86 91
59 61 66 71 73 71 68 71 69 66 65 65 65 68 69 60 53 46 42 42 46 57 68 71 68 67 67 66 74 66 73 83 89 87 85 87 79 76 77 81 77 80 87
72 77 79 79 83 83 80 79 78 76 74 72 71 70 70 72 67 55 49 46 45 49 54 66 76 75 69 69 66 65 68 82 80 86 86 86 88 80 83 80 77 77 83
76 82 83 86 90 90 89 89 85 82 78 77 77 75 74 77 74 69 57 56 52 49 47 51 59 74 75 70 72 73 69 70 84 86 86 84 83 84 86 80 77 75 84
88 91 84 78 84 86 88 91 90 88 81 78 76 76 80 81 77 77 69 60 59 57 55 59 55 66 79 80 81 79 78 76 76 80 74 79 76 77 77 76 75 77 85
91 98 95 82 78 78 84 86 95 101 92 87 84 81 81 84 83 84 79 67 63 64 65 66 66 66 71 82 85 87 80 81 74 79 71 73 72 67 72 75 77 78 81
88 92 95 99 86 82 85 88 86 92 98 99 95 91 88 87 89 90 85 69 70 70 77 79 78 77 76 77 77 84 83 79 76 77 79 71 71 72 74 76 78 81 80
79 85 88 90 92 86 84 84 85 88 93 101 104 97 96 94 95 92 81 69 74 79 84 85 87 82 82 81 79 79 75 77 75 75 76 76 74 74 77 74 77 78 77
75 78 79 85 86 81 85 88 88 89 87 87 100 108 106 94 92 95 90 82 79 85 85 91 89 88 89 84 82 83 77 69 70 73 74 74 75 73 74 75 73 75 79
89 90 84 79 83 86 91 84 87 83 83 84 99 109 103 86 94 92 89 85 82 83 87 90 86 89 88 85 82 86 79 73 70 73 69 71 72 74 71 69 73 73 75
73 75 81 85 82 82 84 83 88 84 82 83 98 102 90 70 81 87 84 83 83 86 85 85 82 88 90 88 84 79 75 74 73 65 65 69 70 69 68 68 70 73 73
64 68 73 78 81 79 78 80 79 82 87 85 86 81 70 69 76 80 81 85 82 83 80 79 78 82 88 83 79 73 71 68 65 62 62 64 68 70 68 69 69 70 71
57 64 74 77 73 72 74 78 79 80 81 82 83 84 82 77 78 83 83 84 83 79 75 77 78 80 80 80 73 66 61 58 59 60 60 63 62 63 64 64 65 66 66
46 52 49 52 57 61 64 67 71 73 75 78 81 81 82 85 86 85 83 82 79 74 73 72 63 65 67 63 65 61 58 56 57 56 55 56 59 60 60 60 61 63 64
35 31 38 40 40 42 47 51 56 58 62 65 66 69 73 78 81 79 77 75 72 68 68 65 60 61 60 60 61 60 60 59 58 57 56 59 60 59 58 57 57 58 57
Wind_Direction_500mb
293 294 295 292 283 274 267 256 246 241 243 244 241 243 244 240 239 240 242 241 244 244 247 246 246 246 248 249 250 248 247 246 248 258 261 260 259 257 255 253 249 248 248
288 290 294 294 289 284 275 264 263 258 250 243 247 243 243 246 245 244 243 241 241 247 247 246 247 245 246 248 250 251 248 248 247 250 254 255 257 263 260 254 253 252 249
285 286 290 292 289 287 289 275 257 248 247 252 243 247 244 245 248 248 244 246 240 249 251 247 247 247 248 246 248 249 252 251 250 247 250 252 255 253 255 255 252 250 247
281 285 288 290 290 292 290 292 286 263 246 247 251 245 246 248 250 250 246 244 240 253 253 250 248 247 247 248 249 250 251 251 249 248 247 247 250 251 250 252 252 253 251
275 280 289 295 298 296 297 294 297 291 258 243 250 251 251 245 249 245 245 250 241 252 248 251 248 249 247 247 248 250 250 249 248 246 244 244 245 245 250 253 255 255 254
264 271 281 291 299 307 308 306 300 301 289 262 243 251 246 246 244 249 245 250 242 248 249 252 251 250 248 248 248 249 251 251 248 249 247 246 248 252 251 252 252 248 248
254 262 275 291 297 303 307 310 310 303 302 293 271 251 259 254 251 247 245 240 251 248 250 252 251 250 250 248 248 248 250 252 254 256 254 253 255 257 255 250 250 250 253
249 258 268 281 292 300 303 306 309 311 307 301 296 274 261 261 259 254 250 246 250 249 250 250 251 253 253 250 247 246 247 249 250 250 252 254 256 259 262 263 265 260 258
250 254 265 278 285 293 296 301 305 306 305 305 299 294 285 264 261 269 258 246 247 243 251 251 250 253 255 251 250 250 249 250 252 253 255 258 258 259 259 257 256 255 254
249 251 263 274 282 288 290 293 298 300 300 301 300 297 289 285 271 256 271 249 251 244 248 246 251 252 255 251 251 251 251 253 253 255 253 252 253 255 256 257 259 256 256
254 256 262 272 281 285 285 284 290 292 293 294 295 294 292 287 282 283 264 257 265 248 251 249 253 253 253 251 253 251 253 257 257 257 255 257 253 249 251 255 255 258 259
270 266 266 270 275 280 280 282 285 288 288 289 292 291 290 291 288 279 279 269 258 262 261 257 255 256 258 253 253 253 254 254 255 259 252 252 255 250 250 257 259 259 262
268 264 263 272 279 278 277 279 283 283 282 284 286 289 290 291 291 288 281 279 274 260 256 261 266 264 261 258 261 255 256 253 253 249 252 255 251 254 256 259 258 258 258
277 276 275 276 276 276 276 276 276 277 277 279 281 284 288 290 290 293 293 287 280 275 266 257 255 256 261 255 256 254 254 252 251 258 255 261 256 256 255 255 254 255 254
281 278 276 275 276 276 276 275 275 273 273 275 278 281 283 283 285 291 293 290 286 283 278 264 253 245 249 250 248 251 248 251 250 251 253 255 260 253 256 253 256 254 254
281 278 274 269 270 272 273 276 275 275 273 271 272 274 277 278 280 282 285 284 279 277 275 267 258 243 242 246 248 246 249 251 245 256 249 260 255 260 256 255 255 255 255
276 275 272 265 261 259 260 262 269 274 275 274 272 272 271 273 274 275 277 281 273 269 261 259 255 250 245 245 246 248 249 245 252 255 251 260 256 258 258 257 256 255 255
278 273 269 266 260 255 252 252 254 261 266 271 270 269 269 269 269 271 273 276 269 261 260 255 253 251 248 247 247 248 250 250 246 250 251 252 258 253 258 256 255 253 255
280 274 269 266 261 255 253 252 250 251 256 263 267 267 265 265 265 269 274 266 266 262 259 258 257 252 250 249 250 253 256 251 250 249 251 252 254 256 257 255 259 256 259
284 281 275 264 256 254 250 247 246 245 247 251 259 262 265 266 267 269 269 266 262 261 258 259 258 256 252 250 249 251 253 254 251 250 250 251 252 253 256 256 256 256 257
286 282 277 271 258 253 247 245 244 242 241 244 253 261 263 262 266 264 262 263 260 259 257 257 256 255 251 249 248 248 249 251 248 251 252 251 251 252 253 255 256 257 258
278 276 273 267 263 252 247 246 243 243 243 245 251 258 260 251 251 254 254 252 257 259 258 258 253 251 248 247 247 249 248 246 252 249 248 249 251 251 253 256 255 256 255
282 275 270 269 262 256 246 245 243 242 244 245 248 251 247 242 243 245 245 252 254 255 257 260 256 252 246 244 247 248 247 247 247 247 246 247 250 252 252 253 254 253 252
285 273 269 269 264 257 250 242 242 244 245 246 248 248 249 247 245 248 247 250 252 253 256 255 253 246 244 244 245 241 240 244 249 246 245 245 247 248 249 250 251 252 253
318 304 279 266 263 260 258 252 248 247 246 247 249 247 247 250 251 246 246 248 251 250 249 246 241 241 237 235 236 237 241 242 243 244 241 240 242 245 246 247 249 250 251
354 319 297 283 275 268 258 255 254 254 254 255 254 252 250 249 252 254 252 250 247 244 241 235 233 233 232 235 237 238 240 240 240 241 240 239 240 242 243 245 246 247 249
Wind_Speed_850mb
32 31 30 30 30 33 42 53 74 92 80 82 86 85 87 93 95 95 96 98 102 102 104 108 108 105 106 104 102 95 88 83 84 80 78 70 66 61 56 62 63 64 63
35 35 33 31 29 31 35 39 45 58 77 87 80 85 92 96 94 93 94 100 94 96 101 103 105 102 104 105 106 107 101 96 92 89 83 78 73 66 67 65 63 63 64
37 35 34 32 32 32 31 34 48 55 59 67 84 79 91 93 95 95 96 96 102 89 88 102 103 100 100 102 106 106 103 102 101 97 91 86 81 73 73 72 71 72 68
39 32 31 32 33 34 33 32 35 46 64 60 65 80 82 89 100 102 98 96 102 92 88 92 93 97 100 100 100 101 102 101 103 102 99 92 89 82 79 80 80 76 74
42 34 30 29 30 33 34 33 32 35 50 70 67 68 72 87 93 96 97 100 89 91 87 93 92 91 88 91 93 96 98 100 102 103 103 97 96 95 92 88 85 82 79
44 36 30 31 31 31 34 34 31 30 33 50 70 64 74 80 93 95 97 91 97 89 90 94 92 89 86 87 88 89 88 91 101 103 105 106 102 94 99 99 94 89 90
50 39 32 31 32 33 35 37 33 29 29 34 44 71 64 68 76 92 95 94 92 90 90 92 92 93 88 86 85 83 84 83 82 85 92 104 104 98 97 105 105 99 100
56 50 42 38 37 37 40 40 37 35 32 32 32 37 51 57 59 74 78 95 96 93 90 88 88 88 88 86 84 84 86 86 86 83 83 81 83 79 80 79 81 93 97
63 55 47 40 41 43 45 45 43 42 41 39 36 35 35 50 53 53 62 82 93 103 85 81 83 84 87 79 80 81 82 88 85 88 87 88 82 76 75 73 75 72 77
75 63 48 45 48 48 49 50 49 49 50 49 46 40 38 39 40 55 43 66 80 94 92 96 87 85 78 78 80 80 84 86 83 83 88 90 87 86 83 84 81 81 80
74 70 60 55 59 59 54 54 54 54 55 56 56 50 45 41 39 39 50 60 57 71 78 91 84 90 93 83 83 83 81 75 78 80 80 83 83 91 86 87 86 88 91
63 66 71 72 70 67 62 61 59 59 60 60 61 63 56 48 42 39 40 47 58 56 65 72 72 69 79 81 78 80 77 74 79 80 82 79 84 89 85 81 80 86 91
59 61 66 71 73 71 68 71 69 66 65 65 65 68 69 60 53 46 42 42 46 57 68 71 68 67 67 66 74 66 73 83 89 87 85 87 79 76 77 81 77 80 87
72 77 79 79 83 83 80 79 78 76 74 72 71 70 70 72 67 55 49 46 45 49 54 66 76 75 69 69 66 65 68 82 80 86 86 86 88 80 83 80 77 77 83
76 82 83 86 90 90 89 89 85 82 78 77 77 75 74 77 74 69 57 56 52 49 47 51 59 74 75 70 72 73 69 70 84 86 86 84 83 84 86 80 77 75 84
88 91 84 78 84 86 88 91 90 88 81 78 76 76 80 81 77 77 69 60 59 57 55 59 55 66 79 80 81 79 78 76 76 80 74 79 76 77 77 76 75 77 85
91 98 95 82 78 78 84 86 95 101 92 87 84 81 81 84 83 84 79 67 63 64 65 66 66 66 71 82 85 87 80 81 74 79 71 73 72 67 72 75 77 78 81
88 92 95 99 86 82 85 88 86 92 98 99 95 91 88 87 89 90 85 69 70 70 77 79 78 77 76 77 77 84 83 79 76 77 79 71 71 72 74 76 78 81 80
79 85 88 90 92 86 84 84 85 88 93 101 104 97 96 94 95 92 81 69 74 79 84 85 87 82 82 81 79 79 75 77 75 75 76 76 74 74 77 74 77 78 77
75 78 79 85 86 81 85 88 88 89 87 87 100 108 106 94 92 95 90 82 79 85 85 91 89 88 89 84 82 83 77 69 70 73 74 74 75 73 74 75 73 75 79
89 90 84 79 83 86 91 84 87 83 83 84 99 109 103 86 94 92 89 85 82 83 87 90 86 89 88 85 82 86 79 73 70 73 69 71 72 74 71 69 73 73 75
73 75 81 85 82 82 84 83 88 84 82 83 98 102 90 70 81 87 84 83 83 86 85 85 82 88 90 88 84 79 75 74 73 65 65 69 70 69 68 68 70 73 73
64 68 73 78 81 79 78 80 79 82 87 85 86 81 70 69 76 80 81 85 82 83 80 79 78 82 88 83 79 73 71 68 65 62 62 64 68 70 68 69 69 70 71
57 64 74 77 73 72 74 78 79 80 81 82 83 84 82 77 78 83 83 84 83 79 75 77 78 80 80 80 73 66 61 58 59 60 60 63 62 63 64 64 65 66 66
46 52 49 52 57 61 64 67 71 73 75 78 81 81 82 85 86 85 83 82 79 74 73 72 63 65 67 63 65 61 58 56 57 56 55 56 59 60 60 60 61 63 64
35 31 38 40 40 42 47 51 56 58 62 65 66 69 73 78 81 79 77 75 72 68 68 65 60 61 60 60 61 60 60 59 58 57 56 59 60 59 58 57 57 58 57
Wind_Direction_850mb
293 294 295 292 283 274 267 256 246 241 243 244 241 243 244 240 239 240 242 241 244 244 247 246 246 246 248 249 250 248 247 246 248 258 261 260 259 257 255 253 249 248 248
288 290 294 294 289 284 275 264 263 258 250 243 247 243 243 246 245 244 243 241 241 247 247 246 247 245 246 248 250 251 248 248 247 250 254 255 257 263 260 254 253 252 249
285 286 290 292 289 287 289 275 257 248 247 252 243 247 244 245 248 248 244 246 240 249 251 247 247 247 248 246 248 249 252 251 250 247 250 252 255 253 255 255 252 250 247
281 285 288 290 290 292 290 292 286 263 246 247 251 245 246 248 250 250 246 244 240 253 253 250 248 247 247 248 249 250 251 251 249 248 247 247 250 251 250 252 252 253 251
275 280 289 295 298 296 297 294 297 291 258 243 250 251 251 245 249 245 245 250 241 252 248 251 248 249 247 247 248 250 250 249 248 246 244 244 245 245 250 253 255 255 254
264 271 281 291 299 307 308 306 300 301 289 262 243 251 246 246 244 249 245 250 242 248 249 252 251 250 248 248 248 249 251 251 248 249 247 246 248 252 251 252 252 248 248
254 262 275 291 297 303 307 310 310 303 302 293 271 251 259 254 251 247 245 240 251 248 250 252 251 250 250 248 248 248 250 252 254 256 254 253 255 257 255 250 250 250 253
249 258 268 281 292 300 303 306 309 311 307 301 296 274 261 261 259 254 250 246 250 249 250 250 251 253 253 250 247 246 247 249 250 250 252 254 256 259 262 263 265 260 258
250 254 265 278 285 293 296 301 305 306 305 305 299 294 285 264 261 269 258 246 247 243 251 251 250 253 255 251 250 250 249 250 252 253 255 258 258 259 259 257 256 255 254
249 251 263 274 282 288 290 293 298 300 300 301 300 297 289 285 271 256 271 249 251 244 248 246 251 252 255 251 251 251 251 253 253 255 253 252 253 255 256 257 259 256 256
254 256 262 272 281 285 285 284 290 292 293 294 295 294 292 287 282 283 264 257 265 248 251 249 253 253 253 251 253 251 253 257 257 257 255 257 253 249 251 255 255 258 259
270 266 266 270 275 280 280 282 285 288 288 289 292 291 290 291 288 279 279 269 258 262 261 257 255 256 258 253 253 253 254 254 255 259 252 252 255 250 250 257 259 259 262
268 264 263 272 279 278 277 279 283 283 282 284 286 289 290 291 291 288 281 279 274 260 256 261 266 264 261 258 261 255 256 253 253 249 252 255 251 254 256 259 258 258 258
277 276 275 276 276 276 276 276 276 277 277 279 281 284 288 290 290 293 293 287 280 275 266 257 255 256 261 255 256 254 254 252 251 258 255 261 256 256 255 255 254 255 254
281 278 276 275 276 276 276 275 275 273 273 275 278 281 283 283 285 291 293 290 286 283 278 264 253 245 249 250 248 251 248 251 250 251 253 255 260 253 256 253 256 254 254
281 278 274 269 270 272 273 276 275 275 273 271 272 274 277 278 280 282 285 284 279 277 275 267 258 243 242 246 248 246 249 251 245 256 249 260 255 260 256 255 255 255 255
276 275 272 265 261 259 260 262 269 274 275 274 272 272 271 273 274 275 277 281 273 269 261 259 255 250 245 245 246 248 249 245 252 255 251 260 256 258 258 257 256 255 255
278 273 269 266 260 255 252 252 254 261 266 271 270 269 269 269 269 271 273 276 269 261 260 255 253 251 248 247 247 248 250 250 246 250 251 252 258 253 258 256 255 253 255
280 274 269 266 261 255 253 252 250 251 256 263 267 267 265 265 265 269 274 266 266 262 259 258 257 252 250 249 250 253 256 251 250 249 251 252 254 256 257 255 259 256 259
284 281 275 264 256 254 250 247 246 245 247 251 259 262 265 266 267 269 269 266 262 261 258 259 258 256 252 250 249 251 253 254 251 250 250 251 252 253 256 256 256 256 257
286 282 277 271 258 253 247 245 244 242 241 244 253 261 263 262 266 264 262 263 260 259 257 257 256 255 251 249 248 248 249 251 248 251 252 251 251 252 253 255 256 257 258
278 276 273 267 263 252 247 246 243 243 243 245 251 258 260 251 251 254 254 252 257 259 258 258 253 251 248 247 247 249 248 246 252 249 248 249 251 251 253 256 255 256 255
282 275 270 269 262 256 246 245 243 242 244 245 248 251 247 242 243 245 245 252 254 255 257 260 256 252 246 244 247 248 247 247 247 247 246 247 250 252 252 253 254 253 252
285 273 269 269 264 257 250 242 242 244 245 246 248 248 249 247 245 248 247 250 252 253 256 255 253 246 244 244 245 241 240 244 249 246 245 245 247 248 249 250 251 252 253
318 304 279 266 263 260 258 252 248 247 246 247 249 247 247 250 251 246 246 248 251 250 249 246 241 241 237 235 236 237 241 242 243 244 241 240 242 245 246 247 249 250 251
354 319 297 283 275 268 258 255 254 254 254 255 254 252 250 249 252 254 252 250 247 244 241 235 233 233 232 235 237 238 240 240 240 241 240 239 240 242 243 245 246 247 249